Showing default

EUTE 28A (EB 1), 26719

Orbit data source: Space-Track

EUTE 28A (EB 1), 26719 is a payload satellite owned by Eutelsat (FR) in GEO that was launched on Thu, 08 Mar 2001 UTC via an ARIANE 5G launch vehicle from the French Guiana (FRGUI). Payloads include a variety of satellites, spacecraft, and rockets equipped with specific instruments for various scientific and technological missions. These include communications satellites like Starlink; space stations such as the ISS; scientific satellites like the Hubble; Earth observation satellites from companies like Planet Labs, Umbra, and HawkEye 360; GPS; miniature CubeSats for education and research; and military/defense satellites.

Not visible in the next 10 days
EUTE 28A (EB 1) details
Identifier
26719, 2001-011A
Orbit
GEO
Last TLE update22 hours ago
Origin
Flag of FREutelsat (FR / EUTE)
ManufacturerAlcatel/Cannes
MissionNon-operational Commercial Communications
Bus & MotorSPACEBUS 3000B2, S400
Mass3,050 kg wet, ~1,300 kg dry
Launch date (UTC)
2001-03-08 (24 years ago)
Launch vehicle
ARIANE 5G
Launch site
French Guiana (FRGUI)
Object type
Payload
Rocket body
Debris
Shape & HBRBox + 2 Pan, 2.3 m
Radar Cross Section27.172 m², Large (>1 m²)

Expand to show TLE details & history

TLE from 22 hours ago
0 EUTE 28A (EB 1)
1 26719U 01011A   25035.26530161  .00000050  00000-0  00000-0 0  9992
2 26719   6.1197  72.9196 0007969 261.7328 308.9739  0.98789509 87464
Epoch: 2025-02-04T06:22Z
Definitive object data (Epoch: 2025-02-04T06:22:02.059Z)
Latitude-3.11639°
Longitude53.25094°
Altitude36,185.812 km
Speed3.061 km/s
True Right ascension18h 53m 43s
True Declination-3° 06' 48"
Sunlit
Object was in daylight at TLE epoch
Visualization TLE readout
Latitude0.94007°
Longitude14.05184°
Altitude36,206.778 km
Speed3.059 km/s
Apparent Right ascension16h 27m 30s
Apparent Declination-4° 06' 10"
Sunlit
Object is in daylight
Visualization observer readout
Local Sidereal Time06:01:59
Azimuth36.944° NE
Elevation-48.315°
Doppler factor1
Orbital elements
Apogee altitude36,242.298 km
Perigee altitude36,174.423 km
Semi-major axis42,586.498 km
Eccentricity0.0007969
Inclination6.1197°
RAAN72.9196°
Arg. of periapsis261.7328°
True anomaly308.90286°
Mean anomaly308.9739°
Eccentric anomaly308.93839°
Mean motion0.24696 °/min
BSTARUnknown
Orbital period1457.7 mins
Loading historical data...
26719 neighbors
Authenticating...
Loading maneuver chart data...
Loading historical data...
Loading historical data...
Loading historical data...
Loading historical data...
Loading historical data...
Loading historical data...
Loading historical data...
Other satellites on launch #11 in the year 2001 (2001-03-08 UTC)

EUTE 28A (EB 1) Visibility forecast

Observer location: undefined°, undefined

EUTE 28A (EB 1) is not visible in the next 10 days
Span
Click to sort rows by Start time (UTC) header in descending order
Start Az.
Max El. time (UTC)
Max El. Az.
Max El.
End time (UTC)
End Az.
|